Regional Weather Roundup
Issued by NWS Cleveland, OH

Home | Current Version | Previous Version | Text Only | Print | Product List | Glossary Off
Versions: 1 2 3 4 5 6 7 8 9 10 11 12 13 14 15 16 17 18 19 20 21 22 23 24 25 26 27 28 29 30 31 32 33 34 35 36 37 38 39 40 41 42 43 44 45 46 47 48 49 50

226
ASUS41 KCLE 290812
RWRCLE
OHIO REGIONAL WEATHER ROUNDUP
NATIONAL WEATHER SERVICE WILMINGTON, OH
400 AM EDT WED MAR 29 2017

NOTE: "FAIR" INDICATES FEW OR NO CLOUDS BELOW 12,000 FEET WITH NO
SIGNIFICANT WEATHER AND/OR OBSTRUCTIONS TO VISIBILITY.

OHZ001>008-015>018-024>027-034-035-043-044-290900-
   NORTHWEST OHIO

CITY           SKY/WX    TMP DP  RH WIND       PRES   REMARKS
DEFIANCE       FAIR      35  33  92 E5        30.22S
FINDLAY        CLOUDY    38  31  76 NE7       30.20S
TOLEDO EXPRESS FAIR      33  32  96 CALM      30.22S
TOLEDO EXEC    CLOUDY    39  34  82 NE6       30.22F
LIMA           MOCLDY    38  35  89 NE6       30.19S
$$

OHZ009>014-019>023-028>033-038-089-290900-
   NORTHEAST OHIO

CITY           SKY/WX    TMP DP  RH WIND       PRES   REMARKS
CLE-HOPKINS    MOCLDY    38  33  82 N3        30.22F
CLE-LAKEFRONT  CLOUDY    37  34  89 NW6       30.19F
CUY CO. ARPT   NOT AVBL
LORAIN-ELYRIA  MOCLDY    36  32  85 N5        30.20F
ASHTABULA      CLOUDY    39  38  96 N3        30.19R
AKRON-CANTON   CLOUDY    40  36  86 N8        30.16S FOG
WOOSTER        CLOUDY    39  37  92 N8        30.18R
MANSFIELD      CLOUDY    37  37 100 N7        30.18S FOG
YOUNGSTOWN     CLOUDY    40  38  93 NW7       30.16S
$$

OHZ042-051>053-060>062-070>072-077>081-290900-
  SOUTHWEST OHIO

CITY           SKY/WX    TMP DP  RH WIND       PRES   REMARKS
CINC-COVINGTON CLOUDY    50  45  83 NE13      30.12S
CINC-LUNKEN    CLOUDY    50  46  86 NE8       30.15S
HAMILTON       CLOUDY    49  45  86 NE8       30.15F
DAYTON         MOCLDY    42  38  85 NE6       30.17S
WRIGHT-PAT AFB MOCLDY    43  41  91 NE7       30.16F
DAYTON GENERAL MOCLDY    45  40  82 NE10      30.14F
WILMINGTON     MOCLDY    43  40  89 NE9       30.14F
$$

OHZ036-037-039>041-045>050-054>059-063>069-073>076-082>088-290900-
  CENTRAL AND SOUTHEAST OHIO

CITY           SKY/WX    TMP DP  RH WIND       PRES   REMARKS
COLUMBUS       FAIR      41  36  82 N7        30.16S
OSU AIRPORT    FAIR      38  35  89 N9        30.16S
BOLTON FIELD   FAIR      40  37  88 N6        30.16F
RICKENBACK AFB FAIR      41  38  91 N7        30.16S
NEWARK         CLOUDY    42  37  82 VRB5      30.16S
MARION         CLOUDY    38  35  89 NE12      30.18F
LANCASTER      FAIR      43  37  79 NE8       30.16S
ZANESVILLE     CLOUDY    44  38  79 N3        30.15F
NEW PHILLY     CLOUDY    44  40  85 N6        30.17R
$$




USA.gov is the U.S. government's official web portal to all federal, state and local government web resources and services.